CAPE
1490 1387 1347 1566 1581 1541 1731 2057 2196 2359 2140 2200 1864 1891 1439 1341 1573 1119 1078 1076 809 747 557 574 649 891 762 716 911 1213 1438 1455 1270 1086 1115 1021 917 911 1297 1262 1497 1381 1447 988 631 610 477 437 428 252 235 133 96 379 766 458 322 181 204 89 55 38 14 7 4 2 1 2 2 3 2 2 0 1 2 2 0 1 1 1 3 2 2 0 1
1502 1367 1374 1507 1536 1507 1556 1535 1805 1869 2107 1908 1802 1690 1480 1498 1346 1209 1051 909 986 817 812 667 572 736 733 944 1097 1336 1617 1418 1360 1259 1070 850 914 839 1187 1376 1421 1354 1263 1302 812 762 594 530 461 412 289 254 156 132 844 676 458 418 394 84 48 55 25 15 1 1 1 2 2 1 2 2 1 2 1 1 3 1 1 0 2 2 1 3 3
1589 1413 1522 1680 1419 1339 1371 1438 1623 1474 1634 1633 2028 2033 1604 1496 1334 1466 1206 986 854 824 790 880 732 773 850 915 1123 1339 1312 1384 1460 1276 1172 1108 1071 1036 876 923 979 1078 1008 1050 1295 985 744 749 574 324 276 268 240 169 159 578 740 604 444 262 153 53 34 14 3 0 0 1 1 1 1 1 2 2 3 2 2 2 1 1 0 0 2 1 2
1653 1518 1278 1079 1164 1245 1411 1590 1758 1462 1411 1490 1810 2036 1882 1655 1484 1472 1242 981 848 802 882 975 973 909 1002 982 1033 1219 1365 1263 1370 1172 902 837 927 1169 1289 997 1081 1157 1299 1092 1266 1222 1267 1019 841 697 444 318 304 260 200 140 171 465 710 573 221 123 92 26 7 2 0 0 0 0 1 1 2 1 1 2 2 1 2 1 1 1 1 1 1
1404 1123 1020 1115 1057 1288 1594 1337 1248 1088 1360 1325 1406 1930 1984 1783 1611 1326 1185 993 927 865 758 1066 1207 1187 1237 1200 1356 1254 1178 1257 1385 1258 968 780 748 700 1106 1135 1086 1166 1077 1267 1290 1192 1276 1443 1210 1060 602 462 314 358 329 289 175 148 309 731 334 224 167 92 38 2 0 0 0 2 2 1 1 0 0 0 0 0 1 1 0 0 0 1 0
1360 968 1125 1257 1206 1344 1331 1023 1046 1042 1074 1339 1387 1553 1808 1851 1483 1315 1186 1217 1181 1310 1426 1468 1138 1160 1334 1192 1407 1490 1345 1214 1366 1403 1333 1038 997 492 337 373 398 555 634 1098 1195 1291 1387 1390 1316 1375 1261 980 470 391 420 423 417 257 222 678 507 337 209 175 94 35 20 0 0 1 1 1 1 1 1 0 1 1 1 0 1 1 0 0 0
1211 1294 1081 1242 1257 1451 1137 1265 1294 1043 759 799 887 764 719 1026 1373 1429 1428 1661 1310 1369 1521 1444 1440 1094 1269 1332 1036 930 1098 1110 1095 1016 1060 1224 1311 804 865 713 454 405 459 742 1021 1273 1100 1246 1368 1402 1383 1209 1020 542 519 392 339 518 369 286 767 520 355 225 155 138 32 0 0 0 0 0 2 1 0 0 0 1 2 2 0 1 0 0 0
1179 1276 1406 1297 1203 1198 1078 1110 1129 1070 919 808 730 733 670 926 1281 1477 1467 1320 1184 1218 1256 1292 1382 988 905 1134 999 834 723 675 574 360 417 701 888 868 824 730 561 619 558 858 1043 1027 752 1033 1300 1295 1347 1476 1438 1108 840 641 470 487 447 380 1070 740 508 345 246 193 113 65 9 0 0 0 1 0 0 0 0 0 0 0 1 1 1 0 0
1188 1347 1402 1300 1005 1042 1151 1124 1126 998 840 973 1121 1200 1264 1002 945 763 1305 1377 1265 1144 1100 1175 1135 1036 924 960 956 932 792 1085 923 500 430 463 487 524 694 641 748 557 922 914 1143 1317 1096 524 860 833 952 1095 1190 1554 1251 981 983 735 627 544 507 964 794 548 363 210 204 120 83 4 0 0 0 0 0 0 0 0 0 0 1 1 1 1 0
1262 1344 1354 1166 965 1049 924 1096 1140 1113 1108 1143 1212 1086 1298 1391 740 681 831 1085 1241 1247 1144 1077 968 931 771 774 1019 1075 1113 1184 1116 953 922 688 588 347 275 500 683 746 649 697 672 928 1159 936 425 466 665 926 1168 1497 1543 1308 1247 1013 957 946 875 616 990 848 615 339 228 150 111 60 7 0 0 0 0 0 0 0 0 0 0 1 1 0 1
1076 1029 1012 1053 1059 923 887 1042 977 1008 1118 943 969 891 942 964 744 500 464 1030 1262 1276 1148 915 940 828 781 526 795 702 772 714 928 803 693 646 557 341 225 238 458 706 1086 1096 762 600 1006 1129 1380 1522 1551 414 1103 1276 1557 1643 1544 1177 906 885 911 778 1045 864 819 638 390 220 151 86 38 14 0 0 0 0 0 0 1 0 0 0 0 1 2
1206 1007 1062 1119 1036 886 768 775 979 1012 1030 874 995 897 836 716 657 324 380 441 539 920 884 577 706 867 733 826 904 1088 703 570 687 607 710 647 382 324 340 422 588 716 914 1082 1465 1294 1537 1499 1459 1237 1349 1199 751 1263 1129 1130 1198 1318 1402 1333 1189 1108 977 1060 756 643 418 373 364 254 200 144 30 8 0 0 0 1 0 1 0 0 0 0 1
1088 1099 951 1044 965 787 823 805 961 1059 1110 933 737 687 713 608 596 544 460 601 525 447 578 578 666 660 695 655 714 868 701 532 442 705 705 306 98 47 130 212 274 546 665 831 1005 1119 1295 1530 1635 1678 1498 1140 1277 567 520 627 832 1061 1299 1397 1265 1009 930 620 818 741 684 626 492 285 406 267 133 62 14 0 0 1 0 0 0 0 0 0 0
752 886 790 941 815 755 958 914 780 647 674 642 700 572 698 750 715 477 558 657 578 670 564 711 803 930 1059 946 658 728 454 642 596 298 360 47 16 40 56 51 65 144 309 324 429 721 962 1235 1295 1088 985 922 819 1131 1120 1084 1152 769 744 859 1119 1054 978 887 825 694 742 774 599 388 552 424 262 142 95 27 8 0 1 2 0 0 0 0 0
904 960 952 860 748 770 714 688 646 580 604 653 643 674 761 748 720 630 355 465 584 453 630 689 743 660 1352 1093 1037 1064 803 1034 477 307 181 228 166 35 66 37 18 28 119 290 418 548 813 848 760 883 883 829 1023 1004 1137 1222 933 604 697 740 793 861 826 696 720 734 678 642 611 611 498 597 436 261 175 116 38 17 2 1 0 0 0 0 0
1111 1223 1137 874 765 774 783 905 812 795 728 736 805 712 576 746 733 585 637 450 321 415 556 507 1028 962 802 886 1006 688 433 848 558 302 351 44 3 0 0 0 0 0 0 1 42 314 641 778 758 924 940 1128 1213 1301 1201 1435 951 782 679 608 545 508 522 749 831 845 1008 972 978 822 499 432 674 405 306 186 97 75 60 2 0 0 0 0 0
1154 1169 1096 854 815 940 820 829 772 730 761 815 825 628 581 753 796 929 912 876 506 423 353 521 921 706 934 443 402 867 790 808 671 338 335 0 0 0 0 0 0 0 0 0 20 313 724 588 649 624 840 1034 1146 1309 1532 1357 1069 581 404 222 173 198 279 352 466 662 806 859 1060 1060 686 514 483 620 510 327 196 120 67 54 12 0 0 1 1
978 1126 987 781 687 659 686 774 817 807 758 849 601 450 452 624 894 1091 1084 1186 940 551 292 284 385 594 897 1068 1092 744 801 629 628 224 0 24 0 0 0 0 0 0 0 0 0 0 0 0 4 72 250 569 855 943 1169 1084 926 793 343 180 318 432 333 285 280 370 575 836 950 964 1042 715 523 446 542 456 264 222 158 122 110 45 3 0 2
1007 1159 1160 871 808 712 771 893 823 802 666 692 667 556 407 545 741 1014 1060 862 841 797 433 288 292 390 399 555 574 777 1364 520 659 230 101 0 0 0 0 0 0 0 0 0 0 0 0 0 0 0 0 14 174 471 572 452 235 40 108 185 358 328 333 351 340 288 264 369 484 662 857 933 821 520 399 474 450 386 306 243 163 134 77 25 5
964 1011 1210 1075 1056 915 942 912 833 754 619 626 623 472 518 539 590 758 798 867 919 830 567 407 573 371 441 478 468 687 877 846 513 180 6 0 0 0 0 0 0 0 0 0 0 0 0 0 0 0 0 0 0 0 0 8 32 30 61 144 252 278 309 360 493 654 647 572 450 356 504 681 928 904 551 408 521 534 406 343 291 218 141 71 48
340 752 1002 986 990 1099 1094 1078 1113 873 627 611 704 414 517 525 548 623 967 1028 1136 911 656 515 568 415 424 490 674 710 683 773 754 292 0 0 0 0 0 0 0 0 0 0 0 0 0 0 0 0 0 0 0 0 0 6 24 19 30 60 114 177 335 468 530 565 584 582 567 434 461 730 785 872 890 550 448 539 504 435 370 284 233 162 126
16 486 652 643 615 826 877 850 814 502 332 385 338 398 482 638 758 963 1016 827 840 880 733 622 603 497 693 395 322 40 0 0 0 0 0 0 0 0 0 0 0 0 0 0 0 0 0 0 0 0 0 0 0 0 0 0 2 32 22 23 32 163 284 354 436 360 311 292 394 509 499 446 558 822 926 832 521 394 436 505 470 388 414 342 279
14 0 0 11 65 272 370 311 130 144 172 290 252 176 322 434 504 506 706 792 761 641 381 406 585 468 74 31 11 2 0 0 0 0 0 0 0 0 0 0 0 0 0 0 0 0 0 0 0 0 0 0 0 0 0 6 40 31 4 7 19 55 91 121 159 195 138 120 166 184 202 346 558 726 753 755 720 608 544 440 540 543 531 429 411
9 12 0 0 11 1 0 1 2 14 18 12 220 285 292 309 393 498 515 554 484 438 343 160 66 10 2 0 0 0 0 0 0 0 0 0 0 0 0 0 0 0 0 0 0 0 0 0 0 0 0 0 0 0 0 0 0 0 0 49 66 46 29 22 37 82 107 127 111 146 273 312 473 762 623 575 529 526 607 582 588 665 605 498 460
53 28 0 0 0 0 0 2 0 0 0 0 0 0 0 25 327 375 334 321 323 33 2 0 0 0 0 0 0 0 0 0 0 0 0 0 0 0 0 0 0 0 0 0 0 0 0 0 0 0 0 0 0 0 0 0 0 0 0 3 58 58 56 50 56 66 71 86 104 197 225 291 364 297 302 292 421 535 555 601 488 516 371 294 357
66 24 0 0 0 0 0 0 0 0 0 0 0 0 0 0 0 0 0 0 0 0 0 0 0 0 0 0 0 0 0 0 0 0 0 0 0 0 0 0 0 0 0 0 0 0 0 0 0 0 0 0 0 0 0 0 0 0 0 0 0 0 0 9 19 25 34 39 36 60 141 147 179 182 206 255 268 298 340 350 381 389 333 224 195
8 0 0 0 0 0 0 0 0 0 0 0 0 0 0 0 0 0 0 0 0 0 0 0 0 0 0 0 0 0 0 0 0 0 0 0 0 0 0 0 0 0 0 0 0 0 0 0 0 0 0 0 0 0 0 0 0 0 0 0 0 0 0 0 0 0 0 16 23 32 31 50 112 125 131 56 46 44 29 10 0 25 157 191 189
0 0 0 0 0 0 0 0 0 0 0 0 0 0 0 0 0 0 0 0 0 0 0 0 0 0 0 0 0 0 0 0 0 0 0 0 0 0 0 0 0 0 0 0 0 0 0 0 0 0 0 0 0 0 0 0 0 0 0 0 0 0 0 0 0 0 0 0 0 0 0 0 12 14 33 71 46 30 0 0 0 0 0 0 0
0 0 0 0 0 0 0 0 0 0 0 0 0 0 0 0 0 0 0 0 0 0 0 0 0 0 0 0 0 0 0 0 0 0 0 0 0 0 0 0 0 0 0 0 0 0 0 0 0 0 0 0 0 0 0 0 0 0 0 0 0 0 0 0 0 0 0 0 0 0 0 0 0 0 0 0 0 26 0 0 0 0 0 0 0
0 0 0 0 0 0 0 0 0 0 0 0 0 0 0 0 0 0 0 0 0 0 0 0 0 0 0 0 0 0 0 0 0 0 0 0 0 0 0 0 0 0 0 0 0 0 0 0 0 0 0 0 0 0 0 0 0 0 0 0 0 0 0 0 0 0 0 0 0 0 0 0 0 0 0 0 0 0 0 0 0 0 0 0 0
0 0 0 0 0 0 0 0 0 0 0 0 0 0 0 0 0 0 0 0 0 0 0 0 0 0 0 0 0 0 0 0 0 0 0 0 0 0 0 0 0 0 0 0 0 0 0 0 0 0 0 0 0 0 0 0 0 0 0 0 0 0 0 0 0 0 0 0 0 0 0 0 0 0 0 0 0 0 0 0 0 0 0 0 0
6 0 0 0 0 0 0 0 0 0 0 0 0 0 0 0 0 0 0 0 0 0 0 0 0 0 0 0 0 0 0 0 0 0 0 0 0 0 0 0 0 0 0 0 0 0 0 0 0 0 0 0 0 0 0 0 0 0 0 0 0 0 0 0 0 0 0 0 0 0 0 0 0 0 0 0 0 0 0 0 0 0 0 0 0
5 1 0 0 0 0 0 0 0 0 0 0 0 0 0 0 0 0 0 0 0 0 0 0 0 0 0 0 0 0 0 0 0 0 0 0 0 0 0 0 0 0 0 0 0 0 0 0 0 0 0 0 0 0 0 0 0 0 0 0 0 0 0 0 0 0 0 0 0 0 0 0 0 0 0 0 0 0 0 0 0 0 0 0 0
0 0 0 0 0 0 0 0 0 0 0 0 0 0 0 0 0 0 0 0 0 0 0 0 0 0 0 0 0 0 0 0 0 0 0 0 0 0 0 0 0 0 0 0 0 0 0 0 0 0 0 0 0 0 0 0 0 0 0 0 0 0 0 0 0 0 0 0 0 0 0 0 0 0 0 0 0 0 0 0 0 0 0 0 0
0 1 0 0 0 0 0 0 0 0 0 0 0 0 0 0 0 0 0 0 0 0 0 0 0 0 0 0 0 0 0 0 0 0 0 0 0 0 0 0 0 0 0 0 0 0 0 0 0 0 0 0 0 0 0 0 0 0 0 0 0 0 0 0 0 0 0 0 0 0 0 0 0 0 0 0 0 0 0 0 0 0 0 0 0
0 0 0 0 0 0 0 0 0 0 0 0 0 0 0 0 0 0 0 0 0 0 0 0 0 0 0 0 0 0 0 0 0 0 0 0 0 0 0 0 0 0 0 0 0 0 0 0 0 0 0 0 0 0 0 0 0 0 0 0 0 0 0 0 0 0 0 0 0 0 0 0 0 0 0 0 0 0 0 0 0 0 0 0 0
0 0 0 0 0 0 0 0 0 0 0 0 0 0 0 0 0 0 0 0 0 0 0 0 0 0 0 0 0 0 0 0 0 0 0 0 0 0 0 0 0 0 0 0 0 0 0 0 0 0 0 0 0 0 0 0 0 0 0 0 0 0 0 0 0 0 0 0 0 0 0 0 0 0 0 0 0 0 0 0 0 0 0 0 0
16 3 0 0 0 7 11 8 8 7 6 13 3 0 1 1 1 1 0 0 0 0 0 0 0 0 0 0 0 0 0 0 0 0 0 0 0 0 0 0 0 0 0 0 0 0 0 0 0 0 0 0 0 0 0 0 0 0 0 0 0 0 0 0 0 0 0 0 0 0 0 0 0 0 0 0 0 0 0 0 0 0 0 0 0
20 28 11 13 73 29 50 122 95 110 62 46 60 110 94 80 102 46 16 0 0 0 0 0 0 0 0 0 0 0 0 0 0 0 0 0 0 0 0 0 0 0 0 0 0 0 0 0 0 0 0 0 0 0 0 0 0 0 0 0 0 0 0 0 0 0 0 0 0 0 0 0 0 0 0 0 0 0 0 0 0 0 0 0 0
146 80 79 162 374 336 344 202 150 130 5 0 0 0 8 79 237 320 278 111 20 12 27 8 0 0 0 0 0 0 0 0 0 0 0 0 0 0 0 0 0 0 0 0 0 0 0 0 0 0 0 0 0 0 0 0 0 0 0 0 0 0 0 0 0 0 0 0 0 0 0 0 0 0 0 0 0 0 0 0 0 0 0 0 0
283 226 304 301 260 192 161 201 61 0 0 0 0 0 0 6 24 124 221 103 74 84 127 128 61 0 0 0 0 0 0 0 0 0 0 0 0 0 0 0 0 0 0 0 0 0 0 0 0 0 0 0 0 0 0 0 0 0 0 0 0 0 0 0 0 0 0 0 0 0 0 0 0 0 0 0 0 0 0 0 0 0 0 0 0
289 400 238 182 198 172 31 25 4 0 0 0 0 0 0 0 45 27 103 143 122 154 207 239 287 202 48 14 3 0 0 0 0 0 0 0 0 0 0 2 1 1 0 0 0 0 0 0 0 0 0 0 0 0 0 0 0 0 0 0 0 0 0 0 0 0 0 0 0 0 0 0 0 0 0 0 0 0 0 0 0 0 0 0 0
82 174 297 205 262 25 2 5 0 0 0 0 0 0 0 4 7 20 170 354 451 383 350 409 428 411 426 165 64 6 0 0 0 0 0 0 0 0 0 0 2 1 0 0 0 0 0 1 2 1 5 5 1 0 0 0 0 0 0 0 0 0 0 0 0 0 0 0 0 0 0 0 0 0 0 0 0 0 0 0 0 0 0 0 0
12 16 150 256 309 252 127 61 43 18 116 0 0 0 6 5 0 0 18 116 300 380 411 336 286 237 213 226 209 242 240 204 166 137 100 44 32 0 6 4 2 1 2 1 1 0 0 0 2 3 6 3 0 0 0 0 0 0 0 0 0 0 0 0 0 0 0 0 0 0 0 0 0 0 0 0 0 0 0 0 0 0 0 0 0
168 214 285 361 454 398 303 137 65 178 107 0 0 0 1 12 0 0 0 0 0 57 104 109 94 78 86 71 83 30 124 236 286 286 262 198 137 77 60 26 10 7 4 0 0 0 0 1 0 0 2 0 0 0 0 0 0 0 0 0 0 0 0 0 0 0 0 0 0 0 0 0 0 0 0 0 0 0 0 0 0 0 0 0 4
224 251 382 446 467 450 328 230 260 154 153 5 0 3 58 58 0 0 0 0 1 0 0 0 10 8 2 2 3 6 0 65 145 208 258 305 122 104 19 15 5 0 0 0 0 0 0 0 0 1 0 0 0 0 0 0 0 0 0 0 0 0 0 0 0 0 0 0 0 0 0 0 0 0 0 0 0 0 0 0 0 0 0 0 0
220 291 379 436 416 304 316 324 208 157 169 0 0 78 98 57 12 0 0 0 0 0 0 0 0 0 0 0 0 0 0 0 0 0 0 133 131 0 0 0 0 0 0 0 0 0 0 0 0 0 0 0 0 0 0 0 0 0 0 0 0 0 0 0 0 0 0 0 0 0 0 0 0 0 0 0 0 0 0 0 0 0 0 0 1
190 225 353 412 336 246 287 300 259 227 30 0 90 111 97 74 0 0 0 0 0 0 0 0 0 0 0 0 0 0 0 0 0 0 0 0 0 0 0 0 0 0 0 1 2 0 0 0 0 0 0 0 0 0 0 0 0 0 0 0 0 0 0 0 0 0 0 0 0 0 0 0 0 0 0 0 0 0 0 0 0 0 0 0 3
10 196 293 185 158 239 246 285 367 179 29 109 167 142 0 0 0 0 0 0 0 0 0 0 0 0 0 0 0 0 0 0 0 0 0 0 0 0 0 0 0 0 0 0 0 0 0 0 0 2 1 0 0 0 0 0 0 0 0 0 0 0 0 0 0 0 0 0 0 0 0 0 0 0 0 0 0 0 0 0 0 0 0 0 0
38 56 126 214 310 316 298 240 292 186 169 168 96 0 0 0 0 0 0 0 0 0 0 0 0 0 0 0 0 0 0 0 0 0 0 0 0 0 0 0 0 0 0 0 0 1 1 0 0 0 0 0 0 0 0 0 0 0 0 0 0 0 0 0 0 0 0 0 0 0 0 0 0 0 0 0 0 0 0 0 0 0 0 0 0
40 34 68 215 387 330 61 0 7 262 151 16 0 0 0 0 0 0 0 0 0 0 0 0 0 0 0 0 0 0 0 0 0 0 0 0 0 0 0 0 0 0 0 0 0 0 0 0 0 0 0 0 0 0 0 0 0 0 0 0 0 0 0 0 0 0 0 0 0 0 0 0 0 0 0 0 0 0 0 0 0 0 1 0 0
Wind_Speed
14 14 14 13 14 14 14 14 13 13 13 14 14 15 16 18 19 20 21 21 23 23 22 22 22 22 22 22 23 24 25 26 27 27 28 28 27 31 30 29 30 31 30 29 28 25 23 23 23 23 23 22 nan 21 22 23 23 21 21 nan nan nan nan nan nan nan nan nan nan nan nan nan nan nan nan nan nan nan nan nan nan nan nan nan nan
13 14 13 12 12 13 12 13 13 12 12 13 14 14 15 16 17 18 19 19 21 22 22 23 23 23 24 22 24 25 27 25 25 26 28 28 28 29 32 32 31 29 30 29 28 27 27 25 23 24 24 23 21 21 23 23 23 22 22 nan nan nan nan nan nan nan nan nan nan nan nan nan nan nan nan nan nan nan nan nan nan nan nan nan nan
14 14 13 12 12 12 12 11 12 12 11 12 13 14 15 16 18 19 20 20 20 20 22 23 24 25 24 25 26 27 26 25 26 29 29 30 29 29 30 31 32 30 30 31 31 30 28 28 26 27 26 24 22 20 20 22 21 22 23 23 23 nan nan nan nan nan nan nan nan nan nan nan nan nan nan nan nan nan nan nan nan nan nan nan nan
14 16 17 15 12 11 10 9 10 10 10 10 10 11 12 15 17 18 20 21 21 21 21 23 24 24 24 26 27 27 26 26 27 27 29 29 29 30 29 29 31 31 30 30 32 34 31 26 29 27 26 25 24 22 22 21 20 21 23 24 25 25 nan nan nan nan nan nan nan nan nan nan nan nan nan nan nan nan nan nan nan nan nan nan nan
17 20 17 13 11 9 7 8 8 9 7 8 8 8 9 10 11 12 14 16 18 19 19 21 23 24 25 26 26 28 28 28 29 28 30 28 26 29 29 30 30 29 29 29 31 32 33 32 30 27 27 27 26 24 22 22 21 21 23 26 26 26 25 nan nan nan nan nan nan nan nan nan nan nan nan nan nan nan nan nan nan nan nan nan nan
15 17 16 13 12 9 8 8 9 9 9 10 10 11 8 7 8 9 11 12 14 14 17 19 20 20 22 24 26 27 27 29 30 30 30 28 29 28 26 28 30 30 28 29 30 30 32 33 34 32 28 26 27 26 24 23 23 23 22 28 27 26 26 25 nan nan nan nan nan nan nan nan nan nan nan nan nan nan nan nan nan nan nan nan nan
13 13 13 12 11 10 9 8 10 12 11 10 11 10 10 9 10 12 12 13 13 14 16 17 17 18 19 20 23 24 27 30 31 32 31 31 30 30 27 26 26 25 27 27 27 28 30 31 33 34 31 27 26 26 25 24 25 23 23 26 28 26 25 24 24 24 nan nan nan nan nan nan nan nan nan nan nan nan nan nan nan nan nan nan nan
14 14 13 12 11 10 10 10 12 13 10 12 12 9 10 14 8 13 12 13 13 14 15 16 17 18 18 18 19 21 23 26 28 29 29 28 30 30 30 28 27 25 23 24 25 27 28 24 27 30 30 30 28 25 27 27 26 25 24 25 27 24 23 24 24 24 24 nan nan nan nan nan nan nan nan nan nan nan nan nan nan nan nan nan nan
13 13 13 14 13 11 10 11 12 12 11 12 10 9 9 11 14 14 8 11 13 15 15 15 15 16 16 18 18 19 21 23 24 25 25 26 27 29 30 30 30 29 29 27 26 24 25 23 23 25 26 27 29 27 26 27 27 27 25 23 24 23 22 22 22 23 24 25 nan nan nan nan nan nan nan nan nan nan nan nan nan nan nan nan nan
13 12 12 13 14 11 10 12 13 13 13 12 12 10 9 9 15 11 8 12 13 14 14 13 13 13 15 16 16 16 18 21 22 23 24 25 26 27 27 28 29 31 32 31 29 26 24 25 23 23 25 26 26 27 27 26 27 27 27 26 25 23 22 23 22 22 24 24 24 nan nan nan nan nan nan nan nan nan nan nan nan nan nan nan nan
15 14 14 13 14 12 10 11 13 14 14 14 12 11 11 11 15 14 7 11 12 13 13 13 12 11 13 13 13 16 17 18 18 21 22 24 26 26 27 28 28 30 30 28 28 26 25 25 26 28 29 28 26 26 27 28 28 28 27 24 24 23 23 21 22 22 22 23 24 nan nan nan nan nan nan nan nan nan nan nan nan nan nan nan nan
16 15 14 13 14 14 12 11 13 14 15 15 14 12 13 15 20 19 14 12 14 13 14 15 16 15 14 14 15 16 19 18 18 18 19 23 25 25 26 27 27 27 28 28 28 29 27 27 27 27 27 30 27 27 27 27 28 28 26 25 26 23 21 22 23 22 22 24 23 22 23 24 nan nan nan nan nan nan nan nan nan nan nan nan nan
15 14 14 14 14 15 14 13 12 13 15 17 16 16 16 17 19 18 19 17 17 16 15 16 19 17 15 16 18 19 19 19 18 17 18 20 nan nan 23 24 25 25 26 26 25 24 25 26 28 28 28 27 27 29 30 29 28 28 29 29 29 29 27 26 23 24 24 22 22 22 24 24 24 nan nan nan nan nan nan nan nan nan nan nan nan
14 14 14 14 14 14 14 14 14 15 17 19 19 18 17 17 19 21 19 19 18 17 17 17 17 16 16 17 17 19 19 19 19 20 19 nan nan nan nan nan nan 23 23 22 22 20 20 23 25 27 27 26 26 27 28 28 29 30 31 32 32 32 30 24 20 23 21 23 21 18 23 24 23 23 nan nan nan nan nan nan nan nan nan nan nan
14 15 14 14 14 14 15 15 15 16 17 18 19 18 17 17 18 21 21 18 18 16 17 14 17 17 17 17 19 18 20 21 21 21 19 17 15 nan nan nan nan nan 23 22 22 22 21 22 23 25 26 26 27 28 28 28 32 30 29 29 31 33 34 29 24 21 19 20 20 20 21 24 23 22 22 21 nan nan nan nan nan nan nan nan nan
13 14 15 16 15 15 15 16 16 16 17 17 18 18 17 18 19 21 21 20 18 17 16 16 16 20 20 18 21 18 23 23 23 21 20 nan nan nan nan nan nan nan nan nan nan 23 23 23 24 24 25 26 27 28 29 29 31 28 29 28 29 32 35 35 30 26 22 19 19 20 22 21 21 23 22 22 nan nan nan nan nan nan nan nan nan
12 13 15 16 16 15 16 16 16 16 15 17 17 17 17 17 18 20 19 20 20 20 20 19 20 19 20 24 22 20 22 27 27 23 19 nan nan nan nan nan nan nan nan nan nan 24 25 26 26 26 27 27 29 29 30 30 31 31 31 33 30 30 33 34 33 30 26 23 21 21 24 22 22 21 22 23 23 24 nan nan nan nan nan nan nan
13 14 15 15 16 17 17 17 16 15 16 17 18 19 19 19 19 20 22 22 23 23 23 22 21 22 21 21 21 22 24 24 22 25 nan nan nan nan nan nan nan nan nan nan nan nan nan nan nan nan 32 32 32 31 31 32 32 32 30 30 32 32 30 32 33 31 28 26 25 24 23 24 23 23 23 24 23 22 23 24 25 nan nan nan nan
14 14 15 15 16 16 17 17 17 16 17 18 19 20 20 20 21 20 22 23 24 24 25 25 26 25 24 24 23 22 24 24 23 28 27 nan nan nan nan nan nan nan nan nan nan nan nan nan nan nan nan nan 35 36 35 35 38 nan 39 35 35 34 33 33 34 33 29 28 27 27 26 23 22 24 25 24 24 23 23 23 23 23 nan nan nan
15 14 14 15 16 17 17 18 18 19 18 19 20 20 21 21 21 22 23 23 23 24 25 25 25 27 26 27 26 26 25 23 25 23 nan nan nan nan nan nan nan nan nan nan nan nan nan nan nan nan nan nan nan nan nan nan nan nan nan 35 34 33 35 35 34 32 31 29 28 28 29 28 26 26 27 25 25 25 25 24 21 19 19 nan nan
17 16 15 15 15 16 18 19 20 21 20 21 22 22 22 22 22 22 22 23 24 25 25 25 26 27 26 26 25 26 26 25 25 26 nan nan nan nan nan nan nan nan nan nan nan nan nan nan nan nan nan nan nan nan nan nan nan nan nan nan 34 34 34 35 37 34 35 34 32 31 30 29 28 27 28 27 26 25 25 23 19 17 17 16 17
nan 17 17 17 17 17 18 20 21 21 21 23 24 24 24 23 23 23 24 26 25 25 25 26 26 26 24 25 26 nan nan nan nan nan nan nan nan nan nan nan nan nan nan nan nan nan nan nan nan nan nan nan nan nan nan nan nan nan nan nan nan 33 34 35 36 34 35 37 36 34 31 27 26 28 28 27 24 22 20 18 17 17 16 14 13
nan nan nan nan nan 19 20 20 20 21 22 23 23 24 25 26 26 27 27 28 26 27 27 26 25 25 nan nan nan nan nan nan nan nan nan nan nan nan nan nan nan nan nan nan nan nan nan nan nan nan nan nan nan nan nan nan nan nan nan nan nan nan nan 35 34 32 33 35 38 35 34 29 28 30 33 27 21 19 17 16 15 15 15 14 12
nan nan nan nan nan nan nan nan nan nan nan nan 24 26 26 27 28 28 29 29 29 27 26 24 nan nan nan nan nan nan nan nan nan nan nan nan nan nan nan nan nan nan nan nan nan nan nan nan nan nan nan nan nan nan nan nan nan nan nan nan nan nan nan nan nan nan 35 35 37 37 39 36 35 36 37 36 27 17 15 16 15 17 21 19 16
nan nan nan nan nan nan nan nan nan nan nan nan nan nan nan nan 28 30 30 30 28 nan nan nan nan nan nan nan nan nan nan nan nan nan nan nan nan nan nan nan nan nan nan nan nan nan nan nan nan nan nan nan nan nan nan nan nan nan nan nan nan nan nan nan nan nan nan nan 39 40 41 42 42 40 39 36 37 39 39 36 33 29 23 18 19
nan nan nan nan nan nan nan nan nan nan nan nan nan nan nan nan nan nan nan nan nan nan nan nan nan nan nan nan nan nan nan nan nan nan nan nan nan nan nan nan nan nan nan nan nan nan nan nan nan nan nan nan nan nan nan nan nan nan nan nan nan nan nan nan nan nan nan nan nan nan 44 45 44 42 40 38 37 37 37 35 36 37 33 27 24
nan nan nan nan nan nan nan nan nan nan nan nan nan nan nan nan nan nan nan nan nan nan nan nan nan nan nan nan nan nan nan nan nan nan nan nan nan nan nan nan nan nan nan nan nan nan nan nan nan nan nan nan nan nan nan nan nan nan nan nan nan nan nan nan nan nan nan nan nan nan nan nan 42 42 41 nan nan nan nan nan nan nan 36 35 33
nan nan nan nan nan nan nan nan nan nan nan nan nan nan nan nan nan nan nan nan nan nan nan nan nan nan nan nan nan nan nan nan nan nan nan nan nan nan nan nan nan nan nan nan nan nan nan nan nan nan nan nan nan nan nan nan nan nan nan nan nan nan nan nan nan nan nan nan nan nan nan nan nan nan nan nan nan nan nan nan nan nan nan nan nan
nan nan nan nan nan nan nan nan nan nan nan nan nan nan nan nan nan nan nan nan nan nan nan nan nan nan nan nan nan nan nan nan nan nan nan nan nan nan nan nan nan nan nan nan nan nan nan nan nan nan nan nan nan nan nan nan nan nan nan nan nan nan nan nan nan nan nan nan nan nan nan nan nan nan nan nan nan nan nan nan nan nan nan nan nan
nan nan nan nan nan nan nan nan nan nan nan nan nan nan nan nan nan nan nan nan nan nan nan nan nan nan nan nan nan nan nan nan nan nan nan nan nan nan nan nan nan nan nan nan nan nan nan nan nan nan nan nan nan nan nan nan nan nan nan nan nan nan nan nan nan nan nan nan nan nan nan nan nan nan nan nan nan nan nan nan nan nan nan nan nan
nan nan nan nan nan nan nan nan nan nan nan nan nan nan nan nan nan nan nan nan nan nan nan nan nan nan nan nan nan nan nan nan nan nan nan nan nan nan nan nan nan nan nan nan nan nan nan nan nan nan nan nan nan nan nan nan nan nan nan nan nan nan nan nan nan nan nan nan nan nan nan nan nan nan nan nan nan nan nan nan nan nan nan nan nan
nan nan nan nan nan nan nan nan nan nan nan nan nan nan nan nan nan nan nan nan nan nan nan nan nan nan nan nan nan nan nan nan nan nan nan nan nan nan nan nan nan nan nan nan nan nan nan nan nan nan nan nan nan nan nan nan nan nan nan nan nan nan nan nan nan nan nan nan nan nan nan nan nan nan nan nan nan nan nan nan nan nan nan nan nan
nan nan nan nan nan nan nan nan nan nan nan nan nan nan nan nan nan nan nan nan nan nan nan nan nan nan nan nan nan nan nan nan nan nan nan nan nan nan nan nan nan nan nan nan nan nan nan nan nan nan nan nan nan nan nan nan nan nan nan nan nan nan nan nan nan nan nan nan nan nan nan nan nan nan nan nan nan nan nan nan nan nan nan nan nan
nan nan nan nan nan nan nan nan nan nan nan nan nan nan nan nan nan nan nan nan nan nan nan nan nan nan nan nan nan nan nan nan nan nan nan nan nan nan nan nan nan nan nan nan nan nan nan nan nan nan nan nan nan nan nan nan nan nan nan nan nan nan nan nan nan nan nan nan nan nan nan nan nan nan nan nan nan nan nan nan nan nan nan nan nan
nan nan nan nan nan nan nan nan nan nan nan nan nan nan nan nan nan nan nan nan nan nan nan nan nan nan nan nan nan nan nan nan nan nan nan nan nan nan nan nan nan nan nan nan nan nan nan nan nan nan nan nan nan nan nan nan nan nan nan nan nan nan nan nan nan nan nan nan nan nan nan nan nan nan nan nan nan nan nan nan nan nan nan nan nan
nan nan nan nan nan nan nan nan nan nan nan nan nan nan nan nan nan nan nan nan nan nan nan nan nan nan nan nan nan nan nan nan nan nan nan nan nan nan nan nan nan nan nan nan nan nan nan nan nan nan nan nan nan nan nan nan nan nan nan nan nan nan nan nan nan nan nan nan nan nan nan nan nan nan nan nan nan nan nan nan nan nan nan nan nan
nan nan nan nan nan nan nan nan nan nan nan nan nan nan nan nan nan nan nan nan nan nan nan nan nan nan nan nan nan nan nan nan nan nan nan nan nan nan nan nan nan nan nan nan nan nan nan nan nan nan nan nan nan nan nan nan nan nan nan nan nan nan nan nan nan nan nan nan nan nan nan nan nan nan nan nan nan nan nan nan nan nan nan nan nan
nan nan nan nan nan nan nan nan nan nan nan nan nan nan nan nan nan nan nan nan nan nan nan nan nan nan nan nan nan nan nan nan nan nan nan nan nan nan nan nan nan nan nan nan nan nan nan nan nan nan nan nan nan nan nan nan nan nan nan nan nan nan nan nan nan nan nan nan nan nan nan nan nan nan nan nan nan nan nan nan nan nan nan nan nan
nan nan nan nan nan nan nan 28 nan 27 nan nan nan 27 nan nan 25 nan nan nan nan nan nan nan nan nan nan nan nan nan nan nan nan nan nan nan nan nan nan nan nan nan nan nan nan nan nan nan nan nan nan nan nan nan nan nan nan nan nan nan nan nan nan nan nan nan nan nan nan nan nan nan nan nan nan nan nan nan nan nan nan nan nan nan nan
21 nan nan 28 27 27 28 30 30 28 nan nan nan nan nan nan 25 24 22 21 nan nan nan nan nan nan nan nan nan nan nan nan nan nan nan nan nan nan nan nan nan nan nan nan nan nan nan nan nan nan nan nan nan nan nan nan nan nan nan nan nan nan nan nan nan nan nan nan nan nan nan nan nan nan nan nan nan nan nan nan nan nan nan nan nan
24 25 29 31 30 29 28 27 nan nan nan nan nan nan nan nan nan 24 23 23 nan nan 22 22 nan nan nan nan nan nan nan nan nan nan nan nan nan nan nan nan nan nan nan nan nan nan nan nan nan nan nan nan nan nan nan nan nan nan nan nan nan nan nan nan nan nan nan nan nan nan nan nan nan nan nan nan nan nan nan nan nan nan nan nan nan
26 28 30 29 27 26 nan nan nan nan nan nan nan nan nan nan nan nan 27 28 27 26 26 25 25 24 nan nan nan nan nan nan nan nan nan nan nan nan nan nan nan nan nan nan nan nan nan nan nan nan nan nan nan nan nan nan nan nan nan nan nan nan nan nan nan nan nan nan nan nan nan nan nan nan nan nan nan nan nan nan nan nan nan nan nan
nan 30 28 24 21 nan nan nan nan nan nan nan nan nan nan nan nan nan 28 29 29 28 26 25 24 25 26 26 nan nan nan nan nan nan nan nan nan nan nan nan nan nan nan nan nan nan nan nan nan nan nan nan nan nan nan nan nan nan nan nan nan nan nan nan nan nan nan nan nan nan nan nan nan nan nan nan nan nan nan nan nan nan nan nan nan
nan nan 27 24 24 24 27 nan nan nan 28 nan nan nan nan nan nan nan nan 26 26 25 24 24 25 27 27 27 27 28 28 28 28 32 nan nan nan nan nan nan nan nan nan nan nan nan nan nan nan nan nan nan nan nan nan nan nan nan nan nan nan nan nan nan nan nan nan nan nan nan nan nan nan nan nan nan nan nan nan nan nan nan nan nan nan
30 31 29 30 30 31 32 34 nan 40 37 nan nan nan nan nan nan nan nan nan nan nan 28 29 nan nan nan nan nan nan 31 34 31 31 34 37 40 nan nan nan nan nan nan nan nan nan nan nan nan nan nan nan nan nan nan nan nan nan nan nan nan nan nan nan nan nan nan nan nan nan nan nan nan nan nan nan nan nan nan nan nan nan nan nan nan
30 32 34 34 35 35 35 34 38 41 41 nan nan nan nan nan nan nan nan nan nan nan nan nan nan nan nan nan nan nan nan nan 32 33 33 36 40 42 nan nan nan nan nan nan nan nan nan nan nan nan nan nan nan nan nan nan nan nan nan nan nan nan nan nan nan nan nan nan nan nan nan nan nan nan nan nan nan nan nan nan nan nan nan nan nan
31 34 37 38 38 37 36 36 37 39 40 nan nan nan nan nan nan nan nan nan nan nan nan nan nan nan nan nan nan nan nan nan nan nan nan 35 39 nan nan nan nan nan nan nan nan nan nan nan nan nan nan nan nan nan nan nan nan nan nan nan nan nan nan nan nan nan nan nan nan nan nan nan nan nan nan nan nan nan nan nan nan nan nan nan nan
40 41 40 39 39 38 37 38 38 38 nan nan nan 45 nan nan nan nan nan nan nan nan nan nan nan nan nan nan nan nan nan nan nan nan nan nan nan nan nan nan nan nan nan nan nan nan nan nan nan nan nan nan nan nan nan nan nan nan nan nan nan nan nan nan nan nan nan nan nan nan nan nan nan nan nan nan nan nan nan nan nan nan nan nan nan
nan 42 42 42 41 40 40 40 40 42 nan 42 43 45 nan nan nan nan nan nan nan nan nan nan nan nan nan nan nan nan nan nan nan nan nan nan nan nan nan nan nan nan nan nan nan nan nan nan nan nan nan nan nan nan nan nan nan nan nan nan nan nan nan nan nan nan nan nan nan nan nan nan nan nan nan nan nan nan nan nan nan nan nan nan nan
nan nan 41 45 46 45 44 45 46 48 46 45 nan nan nan nan nan nan nan nan nan nan nan nan nan nan nan nan nan nan nan nan nan nan nan nan nan nan nan nan nan nan nan nan nan nan nan nan nan nan nan nan nan nan nan nan nan nan nan nan nan nan nan nan nan nan nan nan nan nan nan nan nan nan nan nan nan nan nan nan nan nan nan nan nan
nan nan nan 41 44 45 nan nan nan 51 50 nan nan nan nan nan nan nan nan nan nan nan nan nan nan nan nan nan nan nan nan nan nan nan nan nan nan nan nan nan nan nan nan nan nan nan nan nan nan nan nan nan nan nan nan nan nan nan nan nan nan nan nan nan nan nan nan nan nan nan nan nan nan nan nan nan nan nan nan nan nan nan nan nan nan
Wind_Direction
301 297 296 298 294 292 287 285 286 286 285 273 262 254 250 249 248 249 248 245 244 241 239 237 234 231 233 237 239 239 239 240 243 247 248 246 244 246 238 236 231 230 230 233 242 245 248 253 260 261 260 259 nan 258 265 272 273 271 269 nan nan nan nan nan nan nan nan nan nan nan nan nan nan nan nan nan nan nan nan nan nan nan nan nan nan
298 295 299 297 291 287 286 288 285 283 283 275 263 255 253 251 249 247 247 247 246 245 244 242 237 230 230 232 236 235 237 241 243 245 245 246 245 248 245 237 235 232 232 231 238 241 243 245 249 259 260 257 254 250 271 272 270 270 270 nan nan nan nan nan nan nan nan nan nan nan nan nan nan nan nan nan nan nan nan nan nan nan nan nan nan
299 294 286 280 282 284 289 294 293 287 274 263 259 254 256 257 254 252 251 250 250 249 246 245 242 235 230 233 236 236 237 237 240 239 242 243 243 244 249 246 238 237 233 234 237 239 245 243 246 247 251 256 257 256 249 263 266 264 264 267 268 nan nan nan nan nan nan nan nan nan nan nan nan nan nan nan nan nan nan nan nan nan nan nan nan
298 286 274 280 285 290 302 308 299 284 272 263 260 256 259 259 260 258 258 257 254 249 244 242 241 238 237 239 239 242 242 240 242 245 244 242 244 246 245 247 250 241 239 239 238 242 245 247 247 248 254 255 257 256 260 256 257 260 264 265 267 267 nan nan nan nan nan nan nan nan nan nan nan nan nan nan nan nan nan nan nan nan nan nan nan
283 280 286 293 291 295 303 296 287 277 255 258 247 237 251 260 264 266 265 261 256 251 244 239 238 237 236 238 240 241 241 242 242 244 247 249 250 244 241 242 241 250 246 238 240 244 244 245 248 252 252 255 256 259 261 264 261 257 260 273 273 271 270 nan nan nan nan nan nan nan nan nan nan nan nan nan nan nan nan nan nan nan nan nan nan
300 293 295 297 297 299 300 296 286 275 244 233 226 208 223 258 272 274 268 263 257 252 249 246 243 244 244 242 240 240 241 244 244 242 242 246 247 248 243 240 239 234 234 248 244 242 246 246 247 249 247 248 256 260 265 267 265 263 261 273 279 276 274 272 nan nan nan nan nan nan nan nan nan nan nan nan nan nan nan nan nan nan nan nan nan
305 307 298 293 292 292 300 295 281 264 246 231 234 240 249 241 262 270 262 255 255 248 248 246 246 247 247 248 247 244 241 242 243 243 242 241 248 253 250 249 245 234 234 233 248 254 247 248 247 246 249 251 252 256 262 262 262 263 260 268 283 280 274 272 270 267 nan nan nan nan nan nan nan nan nan nan nan nan nan nan nan nan nan nan nan
308 309 302 296 290 288 288 284 279 267 254 243 240 262 274 266 258 257 257 260 263 259 256 254 249 249 245 245 248 249 249 248 246 247 248 250 250 250 251 251 252 249 242 239 237 244 253 250 249 248 248 251 254 251 252 256 256 260 259 257 279 275 274 274 272 268 266 nan nan nan nan nan nan nan nan nan nan nan nan nan nan nan nan nan nan
304 301 298 298 292 287 283 280 272 262 256 248 254 263 272 279 258 252 251 266 268 269 272 269 263 257 255 250 246 245 246 248 250 251 253 252 251 251 249 249 251 253 252 246 242 243 261 258 251 250 251 250 250 252 255 250 248 248 253 258 265 274 269 269 267 266 265 262 nan nan nan nan nan nan nan nan nan nan nan nan nan nan nan nan nan
305 297 290 292 290 287 281 279 271 259 249 246 248 249 242 253 263 257 247 263 265 275 277 277 276 274 267 258 255 251 248 247 249 253 255 257 256 251 249 249 252 251 251 252 249 247 246 262 264 257 257 257 257 255 252 255 255 254 249 245 242 249 270 268 267 262 260 256 258 nan nan nan nan nan nan nan nan nan nan nan nan nan nan nan nan
295 291 288 285 286 285 278 275 270 260 249 246 253 245 233 238 260 272 262 253 260 272 273 274 273 275 272 261 262 262 257 253 250 251 252 253 253 253 252 249 248 249 250 251 253 249 246 243 247 250 259 265 264 262 262 263 261 261 258 253 251 246 243 259 267 268 261 257 255 nan nan nan nan nan nan nan nan nan nan nan nan nan nan nan nan
289 289 285 282 282 284 281 276 272 270 258 252 254 252 244 249 255 266 268 263 262 267 273 276 275 276 278 273 266 262 260 258 254 253 256 256 254 250 250 252 250 249 248 247 248 250 247 245 247 250 252 266 265 271 271 267 263 261 259 255 253 250 249 244 246 249 255 257 255 254 253 259 nan nan nan nan nan nan nan nan nan nan nan nan nan
281 282 281 278 278 282 283 282 275 272 267 262 264 258 249 253 255 258 271 268 264 267 272 280 283 281 281 277 270 263 263 261 259 259 260 266 nan nan 248 248 251 255 252 249 247 246 245 244 245 245 248 251 264 268 258 256 256 255 252 247 243 242 237 233 231 239 243 244 248 253 260 260 267 nan nan nan nan nan nan nan nan nan nan nan nan
281 280 279 278 278 280 280 279 272 265 262 266 269 266 260 256 258 260 264 270 269 277 281 288 287 289 289 284 281 274 270 268 264 259 264 nan nan nan nan nan nan 248 245 240 240 242 245 247 246 245 245 249 253 257 263 267 272 264 252 245 238 236 245 249 246 243 242 260 265 249 263 270 269 271 nan nan nan nan nan nan nan nan nan nan nan
285 284 279 275 272 271 271 270 268 268 267 267 269 268 261 262 261 262 265 262 264 273 285 281 282 286 284 290 287 289 281 278 272 261 262 270 274 nan nan nan nan nan 238 236 243 250 254 253 248 246 247 249 252 256 258 260 257 256 256 250 242 236 237 245 250 252 256 258 265 264 253 268 272 272 270 270 nan nan nan nan nan nan nan nan nan
283 282 279 276 272 271 269 267 266 265 265 265 265 265 265 265 265 268 270 271 269 269 270 275 276 287 289 281 280 283 287 280 276 266 265 nan nan nan nan nan nan nan nan nan nan 253 257 257 254 252 252 251 252 255 256 255 258 261 260 253 245 238 237 239 243 249 256 263 269 273 274 267 277 278 273 267 nan nan nan nan nan nan nan nan nan
282 279 277 275 271 266 265 263 263 264 264 267 268 268 268 266 268 270 276 275 278 271 270 272 275 269 277 281 282 288 282 287 286 276 271 nan nan nan nan nan nan nan nan nan nan 257 258 258 257 257 256 254 254 254 255 256 259 256 258 253 243 241 239 238 238 241 244 253 263 271 280 283 278 279 279 274 271 270 nan nan nan nan nan nan nan
286 283 277 273 271 269 266 263 260 258 257 258 262 263 263 266 267 268 271 272 275 278 274 273 274 279 272 268 272 279 289 291 294 283 nan nan nan nan nan nan nan nan nan nan nan nan nan nan nan nan 259 258 258 257 256 256 256 258 255 252 243 244 244 239 238 240 245 248 253 259 272 285 285 282 280 282 284 286 285 281 278 nan nan nan nan
281 277 278 277 273 269 267 263 257 254 253 254 256 259 261 262 260 262 264 266 271 271 277 278 276 275 274 273 274 274 278 289 285 289 286 nan nan nan nan nan nan nan nan nan nan nan nan nan nan nan nan nan 260 260 259 259 257 nan 253 251 249 247 247 245 240 238 239 243 247 248 252 262 276 278 278 284 290 291 289 285 281 278 nan nan nan
285 278 273 271 268 267 264 261 257 254 255 255 257 257 258 259 261 260 261 262 265 267 273 277 278 275 274 276 277 277 275 273 283 287 nan nan nan nan nan nan nan nan nan nan nan nan nan nan nan nan nan nan nan nan nan nan nan nan nan 252 249 249 249 247 245 244 246 246 248 249 247 248 252 266 275 277 281 284 284 286 288 286 283 nan nan
275 276 270 266 260 256 253 252 251 250 250 251 253 258 260 262 264 264 265 264 263 264 270 273 274 277 277 276 278 276 275 273 274 278 nan nan nan nan nan nan nan nan nan nan nan nan nan nan nan nan nan nan nan nan nan nan nan nan nan nan 249 248 249 248 244 240 245 245 247 250 252 250 250 251 269 281 277 275 278 282 288 292 289 277 266
nan 265 264 261 255 252 250 247 246 247 248 251 255 259 260 262 263 264 266 266 264 267 268 271 272 278 276 277 278 nan nan nan nan nan nan nan nan nan nan nan nan nan nan nan nan nan nan nan nan nan nan nan nan nan nan nan nan nan nan nan nan 250 250 249 248 244 244 245 241 241 243 247 246 247 251 274 280 279 277 276 275 276 282 281 274
nan nan nan nan nan 251 250 250 249 250 253 257 259 260 262 263 265 268 268 267 266 266 268 268 270 273 nan nan nan nan nan nan nan nan nan nan nan nan nan nan nan nan nan nan nan nan nan nan nan nan nan nan nan nan nan nan nan nan nan nan nan nan nan 254 252 249 247 246 241 240 242 250 258 260 252 259 278 283 283 276 271 270 269 269 269
nan nan nan nan nan nan nan nan nan nan nan nan 257 260 261 263 264 264 264 263 267 268 268 269 nan nan nan nan nan nan nan nan nan nan nan nan nan nan nan nan nan nan nan nan nan nan nan nan nan nan nan nan nan nan nan nan nan nan nan nan nan nan nan nan nan nan 245 240 237 238 240 246 253 257 255 250 252 259 269 261 257 253 242 233 233
nan nan nan nan nan nan nan nan nan nan nan nan nan nan nan nan 262 263 264 266 265 nan nan nan nan nan nan nan nan nan nan nan nan nan nan nan nan nan nan nan nan nan nan nan nan nan nan nan nan nan nan nan nan nan nan nan nan nan nan nan nan nan nan nan nan nan nan nan 237 240 242 243 247 250 250 247 242 241 243 241 239 250 266 262 248
nan nan nan nan nan nan nan nan nan nan nan nan nan nan nan nan nan nan nan nan nan nan nan nan nan nan nan nan nan nan nan nan nan nan nan nan nan nan nan nan nan nan nan nan nan nan nan nan nan nan nan nan nan nan nan nan nan nan nan nan nan nan nan nan nan nan nan nan nan nan 246 246 245 246 247 247 247 245 244 243 243 243 245 248 250
nan nan nan nan nan nan nan nan nan nan nan nan nan nan nan nan nan nan nan nan nan nan nan nan nan nan nan nan nan nan nan nan nan nan nan nan nan nan nan nan nan nan nan nan nan nan nan nan nan nan nan nan nan nan nan nan nan nan nan nan nan nan nan nan nan nan nan nan nan nan nan nan 247 246 246 nan nan nan nan nan nan nan 243 242 243
nan nan nan nan nan nan nan nan nan nan nan nan nan nan nan nan nan nan nan nan nan nan nan nan nan nan nan nan nan nan nan nan nan nan nan nan nan nan nan nan nan nan nan nan nan nan nan nan nan nan nan nan nan nan nan nan nan nan nan nan nan nan nan nan nan nan nan nan nan nan nan nan nan nan nan nan nan nan nan nan nan nan nan nan nan
nan nan nan nan nan nan nan nan nan nan nan nan nan nan nan nan nan nan nan nan nan nan nan nan nan nan nan nan nan nan nan nan nan nan nan nan nan nan nan nan nan nan nan nan nan nan nan nan nan nan nan nan nan nan nan nan nan nan nan nan nan nan nan nan nan nan nan nan nan nan nan nan nan nan nan nan nan nan nan nan nan nan nan nan nan
nan nan nan nan nan nan nan nan nan nan nan nan nan nan nan nan nan nan nan nan nan nan nan nan nan nan nan nan nan nan nan nan nan nan nan nan nan nan nan nan nan nan nan nan nan nan nan nan nan nan nan nan nan nan nan nan nan nan nan nan nan nan nan nan nan nan nan nan nan nan nan nan nan nan nan nan nan nan nan nan nan nan nan nan nan
nan nan nan nan nan nan nan nan nan nan nan nan nan nan nan nan nan nan nan nan nan nan nan nan nan nan nan nan nan nan nan nan nan nan nan nan nan nan nan nan nan nan nan nan nan nan nan nan nan nan nan nan nan nan nan nan nan nan nan nan nan nan nan nan nan nan nan nan nan nan nan nan nan nan nan nan nan nan nan nan nan nan nan nan nan
nan nan nan nan nan nan nan nan nan nan nan nan nan nan nan nan nan nan nan nan nan nan nan nan nan nan nan nan nan nan nan nan nan nan nan nan nan nan nan nan nan nan nan nan nan nan nan nan nan nan nan nan nan nan nan nan nan nan nan nan nan nan nan nan nan nan nan nan nan nan nan nan nan nan nan nan nan nan nan nan nan nan nan nan nan
nan nan nan nan nan nan nan nan nan nan nan nan nan nan nan nan nan nan nan nan nan nan nan nan nan nan nan nan nan nan nan nan nan nan nan nan nan nan nan nan nan nan nan nan nan nan nan nan nan nan nan nan nan nan nan nan nan nan nan nan nan nan nan nan nan nan nan nan nan nan nan nan nan nan nan nan nan nan nan nan nan nan nan nan nan
nan nan nan nan nan nan nan nan nan nan nan nan nan nan nan nan nan nan nan nan nan nan nan nan nan nan nan nan nan nan nan nan nan nan nan nan nan nan nan nan nan nan nan nan nan nan nan nan nan nan nan nan nan nan nan nan nan nan nan nan nan nan nan nan nan nan nan nan nan nan nan nan nan nan nan nan nan nan nan nan nan nan nan nan nan
nan nan nan nan nan nan nan nan nan nan nan nan nan nan nan nan nan nan nan nan nan nan nan nan nan nan nan nan nan nan nan nan nan nan nan nan nan nan nan nan nan nan nan nan nan nan nan nan nan nan nan nan nan nan nan nan nan nan nan nan nan nan nan nan nan nan nan nan nan nan nan nan nan nan nan nan nan nan nan nan nan nan nan nan nan
nan nan nan nan nan nan nan nan nan nan nan nan nan nan nan nan nan nan nan nan nan nan nan nan nan nan nan nan nan nan nan nan nan nan nan nan nan nan nan nan nan nan nan nan nan nan nan nan nan nan nan nan nan nan nan nan nan nan nan nan nan nan nan nan nan nan nan nan nan nan nan nan nan nan nan nan nan nan nan nan nan nan nan nan nan
nan nan nan nan nan nan nan nan nan nan nan nan nan nan nan nan nan nan nan nan nan nan nan nan nan nan nan nan nan nan nan nan nan nan nan nan nan nan nan nan nan nan nan nan nan nan nan nan nan nan nan nan nan nan nan nan nan nan nan nan nan nan nan nan nan nan nan nan nan nan nan nan nan nan nan nan nan nan nan nan nan nan nan nan nan
nan nan nan nan nan nan nan nan nan nan nan nan nan nan nan nan nan nan nan nan nan nan nan nan nan nan nan nan nan nan nan nan nan nan nan nan nan nan nan nan nan nan nan nan nan nan nan nan nan nan nan nan nan nan nan nan nan nan nan nan nan nan nan nan nan nan nan nan nan nan nan nan nan nan nan nan nan nan nan nan nan nan nan nan nan
nan nan nan nan nan nan nan 269 nan 262 nan nan nan 252 nan nan 245 nan nan nan nan nan nan nan nan nan nan nan nan nan nan nan nan nan nan nan nan nan nan nan nan nan nan nan nan nan nan nan nan nan nan nan nan nan nan nan nan nan nan nan nan nan nan nan nan nan nan nan nan nan nan nan nan nan nan nan nan nan nan nan nan nan nan nan nan
270 nan nan 273 269 266 267 268 268 267 nan nan nan nan nan nan 242 242 243 249 nan nan nan nan nan nan nan nan nan nan nan nan nan nan nan nan nan nan nan nan nan nan nan nan nan nan nan nan nan nan nan nan nan nan nan nan nan nan nan nan nan nan nan nan nan nan nan nan nan nan nan nan nan nan nan nan nan nan nan nan nan nan nan nan nan
256 259 264 266 266 262 258 258 nan nan nan nan nan nan nan nan nan 240 242 248 nan nan 256 263 nan nan nan nan nan nan nan nan nan nan nan nan nan nan nan nan nan nan nan nan nan nan nan nan nan nan nan nan nan nan nan nan nan nan nan nan nan nan nan nan nan nan nan nan nan nan nan nan nan nan nan nan nan nan nan nan nan nan nan nan nan
259 258 264 266 264 264 nan nan nan nan nan nan nan nan nan nan nan nan 247 254 258 258 259 262 262 262 nan nan nan nan nan nan nan nan nan nan nan nan nan nan nan nan nan nan nan nan nan nan nan nan nan nan nan nan nan nan nan nan nan nan nan nan nan nan nan nan nan nan nan nan nan nan nan nan nan nan nan nan nan nan nan nan nan nan nan
nan 260 261 262 262 nan nan nan nan nan nan nan nan nan nan nan nan nan 247 253 257 258 258 259 256 254 258 263 nan nan nan nan nan nan nan nan nan nan nan nan nan nan nan nan nan nan nan nan nan nan nan nan nan nan nan nan nan nan nan nan nan nan nan nan nan nan nan nan nan nan nan nan nan nan nan nan nan nan nan nan nan nan nan nan nan
nan nan 274 270 268 270 273 nan nan nan 281 nan nan nan nan nan nan nan nan 250 252 255 255 255 254 255 258 262 267 271 277 281 283 292 nan nan nan nan nan nan nan nan nan nan nan nan nan nan nan nan nan nan nan nan nan nan nan nan nan nan nan nan nan nan nan nan nan nan nan nan nan nan nan nan nan nan nan nan nan nan nan nan nan nan nan
263 262 266 269 269 268 271 278 nan 281 281 nan nan nan nan nan nan nan nan nan nan nan 264 262 nan nan nan nan nan nan 276 283 287 288 290 293 292 nan nan nan nan nan nan nan nan nan nan nan nan nan nan nan nan nan nan nan nan nan nan nan nan nan nan nan nan nan nan nan nan nan nan nan nan nan nan nan nan nan nan nan nan nan nan nan nan
264 260 260 265 269 270 271 273 273 274 277 nan nan nan nan nan nan nan nan nan nan nan nan nan nan nan nan nan nan nan nan nan 279 282 285 289 291 291 nan nan nan nan nan nan nan nan nan nan nan nan nan nan nan nan nan nan nan nan nan nan nan nan nan nan nan nan nan nan nan nan nan nan nan nan nan nan nan nan nan nan nan nan nan nan nan
266 261 261 265 268 269 269 268 268 269 270 nan nan nan nan nan nan nan nan nan nan nan nan nan nan nan nan nan nan nan nan nan nan nan nan 289 292 nan nan nan nan nan nan nan nan nan nan nan nan nan nan nan nan nan nan nan nan nan nan nan nan nan nan nan nan nan nan nan nan nan nan nan nan nan nan nan nan nan nan nan nan nan nan nan nan
258 255 255 258 262 263 265 268 268 270 nan nan nan 279 nan nan nan nan nan nan nan nan nan nan nan nan nan nan nan nan nan nan nan nan nan nan nan nan nan nan nan nan nan nan nan nan nan nan nan nan nan nan nan nan nan nan nan nan nan nan nan nan nan nan nan nan nan nan nan nan nan nan nan nan nan nan nan nan nan nan nan nan nan nan nan
nan 264 262 260 259 261 264 266 269 269 nan 270 275 277 nan nan nan nan nan nan nan nan nan nan nan nan nan nan nan nan nan nan nan nan nan nan nan nan nan nan nan nan nan nan nan nan nan nan nan nan nan nan nan nan nan nan nan nan nan nan nan nan nan nan nan nan nan nan nan nan nan nan nan nan nan nan nan nan nan nan nan nan nan nan nan
nan nan 263 262 260 262 267 270 271 270 268 267 nan nan nan nan nan nan nan nan nan nan nan nan nan nan nan nan nan nan nan nan nan nan nan nan nan nan nan nan nan nan nan nan nan nan nan nan nan nan nan nan nan nan nan nan nan nan nan nan nan nan nan nan nan nan nan nan nan nan nan nan nan nan nan nan nan nan nan nan nan nan nan nan nan
nan nan nan 259 260 258 nan nan nan 270 267 nan nan nan nan nan nan nan nan nan nan nan nan nan nan nan nan nan nan nan nan nan nan nan nan nan nan nan nan nan nan nan nan nan nan nan nan nan nan nan nan nan nan nan nan nan nan nan nan nan nan nan nan nan nan nan nan nan nan nan nan nan nan nan nan nan nan nan nan nan nan nan nan nan nan